Regional Weather Roundup
Issued by NWS

Home | Current Version | Previous Version | Text Only | Print | Product List | Glossary On
Versions: 1 2 3 4 5 6 7 8 9 10 11 12 13 14 15 16 17 18 19 20 21 22 23 24 25 26 27 28 29 30 31 32 33 34 35 36 37 38 39 40 41 42 43 44 45 46 47 48 49 50
000
ASUS43 KLSX 231010
RWRMO

WEATHER SUMMARY FOR MISSOURI
NATIONAL WEATHER SERVICE SPRINGFIELD MO
500 AM CDT FRI JUN 23 2017

NOTE: "FAIR" INDICATES FEW OR NO CLOUDS BELOW 12,000 FEET WITH NO
       SIGNIFICANT WEATHER AND/OR OBSTRUCTIONS TO VISIBILITY.
       CURRENT SKY AND/OR WEATHER CONDITIONS ARE NOT AVAILABLE FOR
       CHILLICOTHE AND FARMINGTON.

MOZ001>031-035>038-043-044-053-054-231100-
...NORTHERN AND WESTERN MISSOURI...

CITY           SKY/WX    TMP DP  RH WIND       PRES   REMARKS
KANSAS CTY INT CLOUDY    75  73  93 N15G23    29.73R
KANSAS C DTWN  CLOUDY    79  74  84 N9        29.70R
LEE`S SUMMIT   MOCLDY    76  74  93 N7        29.72R
ST JOSEPH      CLOUDY    71  67  87 N13G23    29.76S
CHILLICOTHE      N/A     72  71  97 VRB6      29.73R
KIRKSVILLE     RAIN      68  66  93 W5        29.74R FOG

$$
MOZ066>068-077>081-088>096-101>105-231100-
...SOUTHWEST MISSOURI...

CITY           SKY/WX    TMP DP  RH WIND       PRES   REMARKS
SPRINGFIELD    PTCLDY    72  71  97 CALM      29.70F
JOPLIN         CLEAR     73  72  96 SW3       29.70F
BRANSON        CLOUDY    72  72 100 CALM      29.72F FOG

$$
MOZ032>034-039>042-045>050-055>058-069>072-231100-
...CENTRAL MISSOURI...

CITY           SKY/WX    TMP DP  RH WIND       PRES   REMARKS
COLUMBIA       PTCLDY    74  73  97 SW5       29.72R
JEFFERSON CITY CLEAR     76  72  87 CALM      29.70R
ROLLA          PTCLDY    73  71  93 S8        29.69F
SEDALIA        PTCLDY    75  73  93 S5        29.71R
WHITEMAN AFB   MOCLDY    73  73 100 CALM      29.69R
WARRENSBURG    MOCLDY    72  70  94 CALM      29.69S
OSAGE BEACH    CLEAR     71  70  96 CALM      29.72R

$$
MOZ051-052-059>065-231100-
...EAST CENTRAL MISSOURI...

CITY           SKY/WX    TMP DP  RH WIND       PRES   REMARKS
ST LOUIS INTL  CLOUDY    79  72  79 SW8       29.70F
SPIRIT OF STL  CLOUDY    76  74  93 SW3       29.69S
ST CHARLES     CLOUDY    76  74  93 MISG      29.68F

$$
MOZ072>076-082>087-097>100-106>115-231100-
...SOUTH CENTRAL AND SOUTHEAST MISSOURI...

CITY           SKY/WX    TMP DP  RH WIND       PRES   REMARKS
CAPE GIRARDEAU LGT RAIN  76  73  91 S6        29.70S
FARMINGTON     CLOUDY    74  73  97 CALM      29.72F
POPLAR BLUFF   HVY RAIN  76  75  97 S6        29.68F FOG
WEST PLAINS    CLOUDY    74  73  97 NE5       29.71F FOG

$$



USA.gov is the U.S. government's official web portal to all federal, state and local government web resources and services.